Tiempo atmosférico en la estación meteorológica de Banyalbufar, Illes Balears (60 m.)



Fecha
DESCASC
Temp. máxima en grados centígrados (hora)
DESCASC
Temp. mínima en grados centígrados (hora)
DESCASC
Temp. media en grados centígrados
DESCASC
Racha de viento máxima en m/sg (hora)
DESCASC
Velocidad máxima media en intervalos de 10 minutos(hora)
DESCASC
Precipitaciones diarias en mm
DESCASC
Precipitaciones de 00:00 a 06:00 en mm
DESCASC
Precipitaciones de 06:00 a 12:00 en mm
DESCASC
Precipitaciones de 12:00 a 18:00 en mm
DESCASC
Precipitaciones de 18:00 a 24:00 en mm
DESCASC
20-09-2020 27.5 (15:10) 22.3 (07:50) 24.9 11.39 (04:10) 5.56 (00:10) 0 0 0 0 0
19-09-2020 27.1 (11:00) 20.9 (00:50) 24 13.89 (02:50) 6.67 (02:50) 2 2 0 0 0
18-09-2020 28.3 (18:10) 22.6 (07:10) 25.4 13.89 (20:20) 8.89 (20:50) 0.2 0 0 0 0.2
17-09-2020 27.8 (13:40) 20.8 (00:00) 24.3 5.83 (22:10) 3.33 (06:10) 0 0 0 0 0
16-09-2020 26.9 (19:10) 21.4 (00:00) 24.1 4.72 (11:30) 3.33 (15:40) 0 0 0 0 0
15-09-2020 27.7 (14:00) 21.2 (00:00) 24.5 8.06 (08:30) 3.33 (05:10) 0 0 0 0 0
14-09-2020 26.8 (15:30) 20.7 (00:00) 23.8 5.56 (13:00) 3.33 (16:10) 0 0 0 0 0
13-09-2020 28.2 (18:20) 21.4 (00:00) 24.8 6.11 (16:00) 4.44 (15:50) 0 0 0 0 0
12-09-2020 27.8 (16:30) 21.2 (00:00) 24.5 5.28 (14:50) 2.78 (13:40) 0 0 0 0 0
11-09-2020 27.8 (16:10) 20.5 (00:00) 24.1 8.61 (04:30) 3.61 (04:30) 0 0 0 0 0
10-09-2020 24.6 (13:30) 19.4 (00:00) 22 11.39 (14:30) 6.67 (14:40) 0.6 0 0 0.6 0
09-09-2020 25.4 (15:50) 18.3 (00:00) 21.8 4.72 (02:30) 3.06 (01:50) 0 0 0 0 0
08-09-2020 24.1 (17:30) 19.5 (00:00) 21.8 14.72 (11:20) 7.78 (09:00) 2 0.2 1.8 0 0
07-09-2020 24.3 (00:00) 18.2 (07:10) 21.3 10.83 (20:30) 5.56 (18:30) 60 15.2 36.2 8.4 0.2
06-09-2020 27.5 (15:10) 20.8 (00:00) 24.1 6.11 (21:10) 3.33 (04:10) 0 0 0 0 0
05-09-2020 26.8 (17:20) 20.8 (00:00) 23.8 6.67 (16:40) 4.17 (18:30) 0 0 0 0 0
04-09-2020 27.1 (17:20) 20.2 (00:00) 23.7 4.72 (17:20) 3.33 (01:10) 0 0 0 0 0
03-09-2020 27.6 (18:20) 19.5 (00:00) 23.6 5.83 (01:30) 3.61 (03:40) 0 0 0 0 0
02-09-2020 26.8 (17:40) 18 (00:00) 22.4 14.72 (04:50) 9.72 (04:50) 7.6 7.6 0 0 0
01-09-2020 26.5 (13:30) 19.8 (00:00) 23.1 5.56 (04:30) 3.89 (00:40) 0 0 0 0 0
31-08-2020 25.9 (17:30) 17.4 (00:00) 21.6 19.72 (02:40) 9.72 (02:50) 0.2 0.2 0 0 0
30-08-2020 24.2 (16:30) 18.3 (00:00) 21.3 10 (05:10) 7.22 (05:10) 0 0 0 0 0
29-08-2020 26.6 (09:40) 18.5 (00:00) 22.6 47.5 (10:50) 21.39 (10:50) 21.8 1 13.6 5.8 1.4
28-08-2020 33 (14:40) 23.5 (00:00) 28.3 8.06 (19:20) 4.72 (21:00) 0 0 0 0 0
27-08-2020 30 (15:20) 23.5 (00:00) 26.8 4.17 (23:50) 3.33 (06:30) 0 0 0 0 0
26-08-2020 30.4 (18:00) 23.4 (00:00) 26.9 3.89 (03:00) 3.33 (07:00) 0 0 0 0 0
25-08-2020 30 (15:20) 22.9 (00:00) 26.4 5.28 (17:30) 3.61 (17:30) 0 0 0 0 0
24-08-2020 29 (18:00) 23.2 (00:00) 26.1 4.17 (18:10) 2.78 (15:40) 0 0 0 0 0

Gráficas

Temp. máximas Temp. mínimas Temp. medias Precipitaciones Rachas de viento máximas Velocidades máximas media en intervalos de 10 minutos

Datos horarios

Fecha y hora oficial Temperatura (ºC) Velocidad del viento (km/h) Dirección del viento Racha (km/h) Dirección de racha Precipitación (mm) Presión (hPa) Tendencia (hPa) Humedad (%)
2020-09-22 23:00:00 23 6 Sur 12 Sur 0 -- -- 72
2020-09-22 22:00:00 22.6 7 Sur 15 Sudoeste 0 -- -- 68
2020-09-22 21:00:00 22.8 8 Sur 14 Sudoeste 0 -- -- 67
2020-09-22 20:00:00 24.2 6 Sur 19 Oeste 0 -- -- 62
2020-09-22 19:00:00 26.1 6 Oeste 24 Sur 0 -- -- 65
2020-09-22 18:00:00 26.9 12 Oeste 23 Oeste 0 -- -- 56
2020-09-22 17:00:00 26.3 15 Oeste 24 Noroeste 0 -- -- 65
2020-09-22 16:00:00 26.7 10 Oeste 25 Oeste 0 -- -- 65
2020-09-22 15:00:00 26.3 8 Noroeste 21 Noroeste 0 -- -- 66
2020-09-22 14:00:00 26 9 Oeste 21 Oeste 0 -- -- 65
2020-09-22 13:00:00 25.7 10 Noroeste 19 Oeste 0 -- -- 67
2020-09-22 12:00:00 25.6 3 Noroeste 14 Sudoeste 0 -- -- 68
2020-09-22 11:00:00 25.3 0 Calma 10 Sur 0 -- -- 63
2020-09-22 10:00:00 23.1 7 Sur 9 Sur 0 -- -- 67
2020-09-22 09:00:00 22.4 5 Sudeste 9 Sur 0 -- -- 76
2020-09-22 08:00:00 20.3 7 Sur 13 Sur 0 -- -- 82
2020-09-22 07:00:00 20.2 9 Sur 13 Sudoeste 0 -- -- 82
2020-09-22 06:00:00 20.3 10 Sur 13 Sur 0 -- -- 82
2020-09-22 05:00:00 20.9 9 Sur 13 Sur 0 -- -- 84
2020-09-22 04:00:00 21.7 9 Sur 16 Sudoeste 0 -- -- 82
2020-09-22 03:00:00 22.4 9 Sudoeste 15 Sur 0 -- -- 78
2020-09-22 02:00:00 22.8 8 Sudoeste 15 Sudoeste 0 -- -- 80
2020-09-22 01:00:00 23.3 7 Sudoeste 18 Sur 0 -- -- 79
2020-09-22 00:00:00 23.5 6 Sudoeste 17 Sudoeste 0 -- -- 78
2020-09-21 23:00:00 23.7 10 Sudoeste 17 Sudoeste 0 -- -- 77
2020-09-21 22:00:00 23.9 7 Sudoeste 17 Sudoeste 0 -- -- 73
2020-09-21 21:00:00 23.9 10 Sudoeste 19 Sudoeste 0 -- -- 70
2020-09-21 20:00:00 24.5 6 Sudoeste 18 Sudoeste 0 -- -- 60
2020-09-21 19:00:00 26.1 4 Nordeste 8 Nordeste 0 -- -- 63
2020-09-21 18:00:00 27.1 3 Norte 8 Nordeste 0 -- -- 65
2020-09-21 17:00:00 26.2 4 Norte 14 Noroeste 0 -- -- 65
2020-09-21 16:00:00 26.2 5 Norte 17 Norte 0 -- -- 63
2020-09-21 15:00:00 24.7 11 Nordeste 22 Nordeste 0 -- -- 67
2020-09-21 14:00:00 23.6 7 Este 36 Norte 0 -- -- 73
2020-09-21 13:00:00 26.4 8 Nordeste 13 Nordeste 0 -- -- 64
2020-09-21 12:00:00 26.3 5 Noroeste 9 Noroeste 0 -- -- 65
2020-09-21 11:00:00 25.7 6 Norte 8 Norte 0 -- -- 66
2020-09-21 10:00:00 25.2 2 Este 5 Sur 0 -- -- 62
2020-09-21 09:00:00 24.4 0 Calma 10 Sur 0 -- -- 62
2020-09-21 08:00:00 21.4 5 Sudeste 13 Sur 0 -- -- 69
2020-09-21 07:00:00 20.8 9 Sur 14 Sur 0 -- -- 64
2020-09-21 06:00:00 21.3 8 Sur 13 Sur 0 -- -- 60
2020-09-21 05:00:00 21 8 Sur 15 Sur 0 -- -- 63
2020-09-21 04:00:00 21 12 Sur 14 Sur 0 -- -- 66
2020-09-21 03:00:00 21.8 10 Sur 17 Sudoeste 0 -- -- 76
2020-09-21 02:00:00 22 10 Sur 14 Sudoeste 0 -- -- 76
2020-09-21 01:00:00 22.7 10 Sur 19 Sur 0 -- -- 75
2020-09-21 00:00:00 22.8 10 Sudoeste 18 Sudoeste 0 -- -- 74
2020-09-20 23:00:00 23.3 12 Sudoeste 21 Sudoeste 0 -- -- 68
2020-09-20 22:00:00 23 14 Sudoeste 21 Sur 0 -- -- 66
2020-09-20 21:00:00 22.9 10 Sur 19 Sur 0 -- -- 67
2020-09-20 20:00:00 23.4 9 Sudoeste 18 Oeste 0 -- -- 65
2020-09-20 19:00:00 25.5 10 Oeste 20 Oeste 0 -- -- 61
2020-09-20 18:00:00 26.1 9 Oeste 21 Sudoeste 0 -- -- 65
2020-09-20 17:00:00 26.3 13 Oeste 21 Oeste 0 -- -- 63
2020-09-20 16:00:00 27.2 6 Noroeste 11 Noroeste 0 -- -- 54
2020-09-20 15:00:00 27.2 5 Noroeste 8 Norte 0 -- -- 48
2020-09-20 14:00:00 26.8 4 Norte 8 Noroeste 0 -- -- 52
2020-09-20 13:00:00 26.8 4 Norte 8 Noroeste 0 -- -- 56
2020-09-20 12:00:00 26.2 3 Norte 6 Norte 0 -- -- 58
2020-09-20 11:00:00 26.6 0 Calma 8 Sur 0 -- -- 55
2020-09-20 10:00:00 26.2 4 Sur 12 Noroeste 0 -- -- 58
2020-09-20 09:00:00 24.6 7 Noroeste 14 Noroeste 0 -- -- 62
2020-09-20 08:00:00 23 3 Sur 14 Noroeste 0 -- -- 70
2020-09-20 07:00:00 24.4 8 Noroeste 23 Noroeste 0 -- -- 62
2020-09-20 06:00:00 24.5 14 Norte 33 Noroeste 0 -- -- 71
2020-09-20 05:00:00 25.1 15 Noroeste 41 Oeste 0 -- -- 69
2020-09-20 04:00:00 24.8 15 Sudoeste 36 Oeste 0 -- -- 64
2020-09-20 03:00:00 24.9 16 Sudoeste 39 Sudoeste 0 -- -- 61
2020-09-20 02:00:00 25 15 Sur 37 Sur 0 -- -- 55
2020-09-20 01:00:00 25.2 19 Sudoeste 36 Sur 0 -- -- 52
2020-09-20 00:00:00 25.3 15 Sur 34 Sudoeste 0 -- -- 46
2020-09-19 23:00:00 25.5 15 Sur 38 Sudoeste 0 -- -- 48
2020-09-19 22:00:00 25.2 15 Sudoeste 30 Sur 0 -- -- 48
2020-09-19 21:00:00 24.3 11 Sudoeste 26 Sudoeste 0 -- -- 61
2020-09-19 20:00:00 24.6 11 Sudoeste 25 Sudoeste 0 -- -- 54
2020-09-19 19:00:00 25.6 10 Oeste 33 Oeste 0 -- -- 61
2020-09-19 18:00:00 25.8 15 Oeste 34 Oeste 0 -- -- 58
2020-09-19 17:00:00 26.3 11 Oeste 28 Oeste 0 -- -- 60
2020-09-19 16:00:00 26.3 15 Oeste 29 Sudoeste 0 -- -- 60
2020-09-19 15:00:00 25.9 13 Oeste 28 Oeste 0 -- -- 61
2020-09-19 14:00:00 25 14 Oeste 30 Oeste 0 -- -- 72
2020-09-19 13:00:00 25.4 12 Oeste 35 Sudoeste 0 -- -- 79
2020-09-19 12:00:00 26.9 8 Oeste 22 Sudoeste 0 -- -- 71
2020-09-19 11:00:00 27.1 9 Oeste 20 Sudoeste 0 -- -- 62
2020-09-19 10:00:00 25.8 7 Sur 29 Sudeste 0 -- -- 66
2020-09-19 09:00:00 25.3 13 Sur 27 Sur 0 -- -- 69
2020-09-19 08:00:00 23.8 11 Sur 18 Sudeste 0 -- -- 68
2020-09-19 07:00:00 24.1 9 Sur 21 Este 0 -- -- 67
2020-09-19 06:00:00 23.7 3 Sudeste 15 Sur 0 -- -- 70
2020-09-19 05:00:00 22.8 7 Sudeste 13 Sur 0 -- -- 73
2020-09-19 04:00:00 24.1 6 Sudeste 32 Sudoeste 0 -- -- 73
2020-09-19 03:00:00 25 15 Sudeste 50 Sudeste 0 -- -- 69
2020-09-19 02:00:00 24.2 6 Nordeste 29 Sudeste 0 -- -- 73
2020-09-19 01:00:00 21.7 14 Sur 26 Sur 2 -- -- 72
2020-09-19 00:00:00 26 7 Sudoeste 15 Sudoeste 0.2 -- -- 56
2020-09-18 23:00:00 27.4 4 Sudoeste 30 Sur 0 -- -- 43
2020-09-18 22:00:00 27.6 10 Sur 48 Sudeste 0 -- -- 37
2020-09-18 21:00:00 26.5 30 Sudeste 50 Sudeste 0 -- -- 40
2020-09-18 20:00:00 25.6 20 Sur 48 Sudeste 0 -- -- 57
2020-09-18 19:00:00 27.2 10 Sur 27 Este 0 -- -- 47
2020-09-18 18:00:00 27.1 4 Sudeste 20 Nordeste 0 -- -- 60
2020-09-18 17:00:00 25.6 15 Nordeste 22 Nordeste 0 -- -- 76
2020-09-18 16:00:00 26.5 6 Nordeste 16 Este 0 -- -- 70
2020-09-18 15:00:00 27.4 5 Noroeste 29 Nordeste 0 -- -- 59
2020-09-18 14:00:00 25.9 6 Este 17 Nordeste 0 -- -- 69
2020-09-18 13:00:00 26.4 3 Noroeste 10 Norte 0 -- -- 69
2020-09-18 12:00:00 26.5 6 Oeste 14 Oeste 0 -- -- 65
2020-09-18 11:00:00 27.4 4 Este 9 Sudeste 0 -- -- 51
2020-09-18 10:00:00 25 6 Sur 13 Sur 0 -- -- 60
2020-09-18 09:00:00 23.5 10 Sur 14 Sur 0 -- -- 61
2020-09-18 08:00:00 24 7 Sudoeste 15 Nordeste 0 -- -- 55
2020-09-18 07:00:00 22.8 8 Sur 13 Sur 0 -- -- 57
2020-09-18 06:00:00 25.1 12 Nordeste 33 Nordeste 0 -- -- 50
2020-09-18 05:00:00 25.1 15 Nordeste 26 Nordeste 0 -- -- 49
2020-09-18 04:00:00 25.4 5 Nordeste 21 Norte 0 -- -- 46
2020-09-18 03:00:00 25.1 7 Nordeste 16 Nordeste 0 -- -- 50
2020-09-18 02:00:00 24.9 7 Este 16 Nordeste 0 -- -- 54
2020-09-18 01:00:00 24 5 Sur 12 Sur 0 -- -- 60
2020-09-18 00:00:00 24.6 4 Sudeste 13 Nordeste 0 -- -- 60
2020-09-17 23:00:00 25 4 Este 21 Nordeste 0 -- -- 59
2020-09-17 22:00:00 24.7 5 Sudeste 15 Este 0 -- -- 54
2020-09-17 21:00:00 23.8 8 Sur 12 Sur 0 -- -- 57
2020-09-17 20:00:00 24.4 8 Sur 12 Sur 0 -- -- 57
2020-09-17 19:00:00 25.8 6 Este 13 Este 0 -- -- 66
2020-09-17 18:00:00 26.4 3 Nordeste 5 Nordeste 0 -- -- 56
2020-09-17 17:00:00 26.3 4 Noroeste 6 Noroeste 0 -- -- 64
2020-09-17 16:00:00 27.1 4 Norte 7 Norte 0 -- -- 61
2020-09-17 15:00:00 26.8 4 Norte 13 Noroeste 0 -- -- 63
2020-09-17 14:00:00 27 4 Norte 9 Noroeste 0 -- -- 61
2020-09-17 13:00:00 27 3 Nordeste 16 Oeste 0 -- -- 57
2020-09-17 12:00:00 26.7 9 Oeste 15 Oeste 0 -- -- 44
2020-09-17 11:00:00 26.7 4 Noroeste 12 Oeste 0 -- -- 52
2020-09-17 10:00:00 25.4 0 Calma 12 Sur 0 -- -- 70
2020-09-17 09:00:00 22.4 10 Sur 13 Sur 0 -- -- 67
2020-09-17 08:00:00 21.2 8 Sur 13 Sur 0 -- -- 80
2020-09-17 07:00:00 21 9 Sur 16 Sur 0 -- -- 73
2020-09-17 06:00:00 21.1 12 Sur 14 Sur 0 -- -- 69
2020-09-17 05:00:00 21.2 10 Sur 14 Sur 0 -- -- 65
2020-09-17 04:00:00 21.4 10 Sur 13 Sur 0 -- -- 64
2020-09-17 03:00:00 21.9 8 Sur 13 Sudoeste 0 -- -- 63
2020-09-17 02:00:00 22.1 8 Sur 12 Sur 0 -- -- 62
2020-09-17 01:00:00 22.9 3 Sudeste 10 Sur 0 -- -- 61
2020-09-17 00:00:00 22.2 9 Sur 13 Sur 0 -- -- 68
2020-09-16 23:00:00 22.4 10 Sur 13 Sur 0 -- -- 72
2020-09-16 22:00:00 23 5 Sur 13 Sur 0 -- -- 75
2020-09-16 21:00:00 23 9 Sur 13 Sur 0 -- -- 75
2020-09-16 20:00:00 24.1 6 Sur 10 Norte 0 -- -- 82
2020-09-16 19:00:00 26.7 4 Noroeste 15 Norte 0 -- -- 75
2020-09-16 18:00:00 26.6 10 Norte 15 Norte 0 -- -- 77
2020-09-16 17:00:00 26.7 7 Norte 13 Norte 0 -- -- 75
2020-09-16 16:00:00 26.4 11 Norte 17 Norte 0 -- -- 78
2020-09-16 15:00:00 26.3 10 Norte 15 Norte 0 -- -- 78
2020-09-16 14:00:00 26.3 8 Norte 15 Norte 0 -- -- 78
2020-09-16 13:00:00 25.7 8 Norte 15 Norte 0 -- -- 80
2020-09-16 12:00:00 25.6 9 Norte 17 Nordeste 0 -- -- 80
2020-09-16 11:00:00 25.5 10 Nordeste 16 Nordeste 0 -- -- 77
2020-09-16 10:00:00 25.7 6 Nordeste 11 Nordeste 0 -- -- 78
2020-09-16 09:00:00 23.1 7 Sur 12 Sur 0 -- -- 65
2020-09-16 08:00:00 21.8 6 Sur 13 Sur 0 -- -- 69
2020-09-16 07:00:00 21.8 8 Sur 14 Sudoeste 0 -- -- 62
2020-09-16 06:00:00 21.8 7 Sur 12 Sur 0 -- -- 63
2020-09-16 05:00:00 22 11 Sur 13 Sur 0 -- -- 61
2020-09-16 04:00:00 22 9 Sur 13 Sur 0 -- -- 62
2020-09-16 03:00:00 22.4 10 Sur 13 Sur 0 -- -- 60
2020-09-16 02:00:00 22.2 9 Sur 13 Sur 0 -- -- 62
2020-09-16 01:00:00 22.6 7 Sur 13 Sur 0 -- -- 63
2020-09-16 00:00:00 22.6 5 Sur 13 Sur 0 -- -- 65
2020-09-15 23:00:00 22.6 10 Sur 13 Sur 0 -- -- 66
2020-09-15 22:00:00 23 8 Sur 15 Sur 0 -- -- 65
2020-09-15 21:00:00 23.1 10 Sur 12 Sur 0 -- -- 74
2020-09-15 20:00:00 24.3 7 Sur 14 Norte 0 -- -- 80
2020-09-15 19:00:00 26.4 9 Norte 14 Norte 0 -- -- 76
2020-09-15 18:00:00 27.3 4 Nordeste 9 Norte 0 -- -- 71
2020-09-15 17:00:00 27.4 4 Norte 8 Norte 0 -- -- 73
2020-09-15 16:00:00 26.8 6 Norte 10 Norte 0 -- -- 73
2020-09-15 15:00:00 27 4 Norte 8 Norte 0 -- -- 72
2020-09-15 14:00:00 27.7 4 Noroeste 8 Norte 0 -- -- 67
2020-09-15 13:00:00 26.8 2 Norte 10 Norte 0 -- -- 67
2020-09-15 12:00:00 26.8 4 Nordeste 10 Norte 0 -- -- 60
2020-09-15 11:00:00 26.5 2 Norte 12 Norte 0 -- -- 63
2020-09-15 10:00:00 24.3 9 Sur 14 Sudoeste 0 -- -- 59
2020-09-15 09:00:00 25.1 4 Sudeste 29 Sudeste 0 -- -- 49
2020-09-15 08:00:00 23.4 9 Sudeste 16 Sudeste 0 -- -- 54
2020-09-15 07:00:00 22.6 9 Sudeste 14 Sudeste 0 -- -- 61
2020-09-15 06:00:00 21.9 8 Sudeste 15 Sur 0 -- -- 80
2020-09-15 05:00:00 21.2 11 Sur 14 Sur 0 -- -- 75
2020-09-15 04:00:00 21.3 11 Sur 14 Sur 0 -- -- 67
2020-09-15 03:00:00 21.6 8 Sur 13 Sur 0 -- -- 69
2020-09-15 02:00:00 22.1 9 Sur 13 Sur 0 -- -- 71
2020-09-15 01:00:00 22.2 10 Sur 14 Sur 0 -- -- 72
2020-09-15 00:00:00 22.3 9 Sur 13 Sur 0 -- -- 77
2020-09-14 23:00:00 22.6 7 Sur 13 Sur 0 -- -- 74
2020-09-14 22:00:00 22.8 8 Sur 13 Sur 0 -- -- 75
2020-09-14 21:00:00 23.1 9 Sur 13 Sur 0 -- -- 78
2020-09-14 20:00:00 23.8 8 Sur 15 Nordeste 0 -- -- 78
2020-09-14 19:00:00 26.2 7 Nordeste 13 Norte 0 -- -- 70
2020-09-14 18:00:00 26.7 9 Norte 18 Norte 0 -- -- 68
2020-09-14 17:00:00 26.7 9 Norte 19 Norte 0 -- -- 70
2020-09-14 16:00:00 26.4 10 Nordeste 17 Norte 0 -- -- 74
2020-09-14 15:00:00 26.3 8 Norte 14 Norte 0 -- -- 74
2020-09-14 14:00:00 26.1 8 Norte 17 Norte 0 -- -- 75
2020-09-14 13:00:00 25.9 10 Nordeste 20 Norte 0 -- -- 76
2020-09-14 12:00:00 25.3 7 Norte 12 Norte 0 -- -- 78
2020-09-14 11:00:00 25.6 5 Nordeste 9 Nordeste 0 -- -- 78
2020-09-14 10:00:00 26 3 Este 10 Sur 0 -- -- 71
2020-09-14 09:00:00 22.2 8 Sur 14 Sur 0 -- -- 74
2020-09-14 08:00:00 20.8 10 Sur 13 Sur 0 -- -- 73
2020-09-14 07:00:00 20.8 9 Sur 15 Sur 0 -- -- 72
2020-09-14 06:00:00 20.8 10 Sur 14 Sur 0 -- -- 73
2020-09-14 05:00:00 21 11 Sur 14 Sur 0 -- -- 72
2020-09-14 04:00:00 21.1 10 Sur 13 Sur 0 -- -- 69
2020-09-14 03:00:00 21.3 10 Sur 14 Sur 0 -- -- 63
2020-09-14 02:00:00 21.7 8 Sur 14 Sur 0 -- -- 65
2020-09-14 01:00:00 22.4 6 Sur 14 Sur 0 -- -- 66
2020-09-14 00:00:00 22.6 8 Sur 12 Sur 0 -- -- 64
2020-09-13 23:00:00 22.9 7 Sur 13 Sur 0 -- -- 65
2020-09-13 22:00:00 23.4 6 Sur 14 Sur 0 -- -- 64
2020-09-13 21:00:00 23.8 8 Sur 11 Sur 0 -- -- 61
2020-09-13 20:00:00 26.6 3 Sudeste 13 Nordeste 0 -- -- 49
2020-09-13 19:00:00 27.5 7 Nordeste 13 Nordeste 0 -- -- 58
2020-09-13 18:00:00 27.6 9 Nordeste 15 Nordeste 0 -- -- 66
2020-09-13 17:00:00 27.4 8 Nordeste 19 Nordeste 0 -- -- 67
2020-09-13 16:00:00 27 14 Nordeste 22 Nordeste 0 -- -- 66
2020-09-13 15:00:00 26.8 13 Nordeste 19 Nordeste 0 -- -- 68
2020-09-13 14:00:00 27.2 9 Norte 14 Norte 0 -- -- 59
2020-09-13 13:00:00 26.7 8 Norte 12 Norte 0 -- -- 66
2020-09-13 12:00:00 26.3 5 Norte 9 Norte 0 -- -- 63
2020-09-13 11:00:00 26.9 3 Nordeste 6 Nordeste 0 -- -- 53
2020-09-13 10:00:00 27 2 Sur 9 Este 0 -- -- 53
2020-09-13 09:00:00 24.4 4 Este 11 Sur 0 -- -- 54
2020-09-13 08:00:00 22.1 6 Sudeste 12 Sudeste 0 -- -- 61
2020-09-13 07:00:00 22.3 7 Sudeste 14 Este 0 -- -- 62
2020-09-13 06:00:00 22.7 8 Sudeste 14 Sudeste 0 -- -- 64
2020-09-13 05:00:00 22.7 7 Sudeste 15 Sudeste 0 -- -- 71
2020-09-13 04:00:00 22.2 7 Sudeste 13 Sudeste 0 -- -- 68
2020-09-13 03:00:00 22.2 7 Sur 10 Sudeste 0 -- -- 73
2020-09-13 02:00:00 22.6 7 Sudeste 12 Sur 0 -- -- 70
2020-09-13 01:00:00 21.9 6 Sur 12 Sur 0 -- -- 72
2020-09-13 00:00:00 22.7 6 Sur 13 Sur 0 -- -- 63
2020-09-12 23:00:00 23.1 5 Sudeste 14 Sudeste 0 -- -- 55
2020-09-12 22:00:00 24.3 9 Sudeste 12 Este 0 -- -- 50
2020-09-12 21:00:00 24.1 4 Sudeste 10 Sur 0 -- -- 50
2020-09-12 20:00:00 24 8 Sur 11 Sur 0 -- -- 64
2020-09-12 19:00:00 26.4 6 Nordeste 16 Norte 0 -- -- 65
2020-09-12 18:00:00 27 6 Nordeste 10 Norte 0 -- -- 64
2020-09-12 17:00:00 27.2 5 Norte 14 Nordeste 0 -- -- 62
2020-09-12 16:00:00 27.2 9 Nordeste 18 Nordeste 0 -- -- 62
2020-09-12 15:00:00 27.5 8 Nordeste 19 Nordeste 0 -- -- 53
2020-09-12 14:00:00 27.1 6 Norte 14 Nordeste 0 -- -- 64
2020-09-12 13:00:00 27.1 6 Nordeste 14 Nordeste 0 -- -- 62
2020-09-12 12:00:00 27.1 9 Nordeste 15 Nordeste 0 -- -- 47
2020-09-12 11:00:00 26 8 Nordeste 14 Nordeste 0 -- -- 67
2020-09-12 10:00:00 25.6 6 Nordeste 9 Nordeste 0 -- -- 70
2020-09-12 09:00:00 24.3 6 Sudeste 10 Sur 0 -- -- 77
2020-09-12 08:00:00 22.2 6 Sur 12 Sur 0 -- -- 83
2020-09-12 07:00:00 21.6 7 Sur 12 Sur 0 -- -- 84
2020-09-12 06:00:00 21.8 8 Sur 12 Sur 0 -- -- 83
2020-09-12 05:00:00 22 6 Sur 13 Sur 0 -- -- 83
2020-09-12 04:00:00 22.4 9 Sur 14 Sur 0 -- -- 82
2020-09-12 03:00:00 21.8 6 Sur 13 Sur 0 -- -- 76
2020-09-12 02:00:00 22.3 8 Sur 13 Sur 0 -- -- 70
2020-09-12 01:00:00 21.5 6 Sur 10 Sur 0 -- -- 73
2020-09-12 00:00:00 21.6 8 Sur 15 Sudeste 0 -- -- 70
2020-09-11 23:00:00 22.4 7 Sur 11 Sur 0 -- -- 64
2020-09-11 22:00:00 22 7 Sur 12 Sur 0 -- -- 67
2020-09-11 21:00:00 22.1 7 Sur 11 Sur 0 -- -- 69
2020-09-11 20:00:00 24.1 7 Sur 10 Sur 0 -- -- 72
2020-09-11 19:00:00 26.5 3 Este 5 Nordeste 0 -- -- 64
2020-09-11 18:00:00 27 4 Norte 8 Norte 0 -- -- 64
2020-09-11 17:00:00 27.4 5 Noroeste 11 Norte 0 -- -- 63
2020-09-11 16:00:00 27.4 7 Noroeste 12 Norte 0 -- -- 60
2020-09-11 15:00:00 27.2 10 Noroeste 14 Noroeste 0 -- -- 67
2020-09-11 14:00:00 25.8 5 Noroeste 14 Oeste 0 -- -- 70
2020-09-11 13:00:00 26.4 8 Oeste 16 Noroeste 0 -- -- 68
2020-09-11 12:00:00 26 8 Noroeste 18 Noroeste 0 -- -- 67
2020-09-11 11:00:00 25.5 10 Noroeste 17 Oeste 0 -- -- 70
2020-09-11 10:00:00 25.1 9 Oeste 17 Oeste 0 -- -- 73
2020-09-11 09:00:00 23.6 7 Sudoeste 15 Noroeste 0 -- -- 79
2020-09-11 08:00:00 23.7 10 Noroeste 20 Noroeste 0 -- -- 79
2020-09-11 07:00:00 23.1 4 Oeste 19 Noroeste 0 -- -- 77
2020-09-11 06:00:00 22.6 9 Sudoeste 18 Sudoeste 0 -- -- 77
2020-09-11 05:00:00 21.6 8 Sur 31 Este 0 -- -- 77
2020-09-11 04:00:00 22.4 7 Sudoeste 15 Sudoeste 0 -- -- 75
2020-09-11 03:00:00 21.2 10 Sur 14 Sudoeste 0 -- -- 81
2020-09-11 02:00:00 20.6 9 Sur 12 Sur 0 -- -- 84
2020-09-11 01:00:00 21.1 6 Sur 10 Sur 0 -- -- 82
2020-09-11 00:00:00 21 7 Sur 14 Este 0 -- -- 81
2020-09-10 23:00:00 21.2 8 Sudeste 17 Sudeste 0 -- -- 78
2020-09-10 22:00:00 21.7 6 Sudeste 14 Este 0 -- -- 76
2020-09-10 21:00:00 22.5 6 Este 13 Nordeste 0 -- -- 74
2020-09-10 20:00:00 23.1 5 Este 24 Nordeste 0 -- -- 71
2020-09-10 19:00:00 23.9 17 Nordeste 25 Nordeste 0 -- -- 69
2020-09-10 18:00:00 24.1 16 Nordeste 26 Nordeste 0 -- -- 69
2020-09-10 17:00:00 24.3 8 Nordeste 18 Nordeste 0 -- -- 73
2020-09-10 16:00:00 23.5 9 Nordeste 21 Nordeste 0.2 -- -- 76
2020-09-10 15:00:00 21.5 10 Sudeste 41 Norte 0.4 -- -- 82
2020-09-10 14:00:00 23.8 9 Norte 14 Norte 0 -- -- 72
2020-09-10 13:00:00 24.5 8 Nordeste 14 Nordeste 0 -- -- 69
2020-09-10 12:00:00 23.9 7 Nordeste 16 Este 0 -- -- 71
2020-09-10 11:00:00 23.3 9 Nordeste 15 Este 0 -- -- 72
2020-09-10 10:00:00 22.8 6 Sudeste 24 Norte 0 -- -- 73
2020-09-10 09:00:00 21.1 9 Norte 21 Este 0 -- -- 83
2020-09-10 08:00:00 20.4 6 Sur 9 Sudeste 0 -- -- 83
2020-09-10 07:00:00 19.7 7 Sur 10 Sur 0 -- -- 83
2020-09-10 06:00:00 19.9 5 Sur 13 Este 0 -- -- 83
2020-09-10 05:00:00 20.3 7 Sudeste 13 Este 0 -- -- 82
2020-09-10 04:00:00 20.4 7 Sur 10 Sur 0 -- -- 81
2020-09-10 03:00:00 19.8 6 Sur 10 Sur 0 -- -- 83
2020-09-10 02:00:00 19.8 5 Sur 9 Sur 0 -- -- 84
2020-09-10 01:00:00 19.4 7 Sur 13 Sur 0 -- -- 84
2020-09-10 00:00:00 19.5 10 Sur 13 Sur 0 -- -- 82
2020-09-09 23:00:00 19.8 6 Sur 12 Sur 0 -- -- 80
2020-09-09 22:00:00 20.9 6 Sur 10 Sur 0 -- -- 77
2020-09-09 21:00:00 21.2 6 Sur 9 Sur 0 -- -- 77
2020-09-09 20:00:00 22.7 4 Sudeste 14 Este 0 -- -- 72
2020-09-09 19:00:00 24.6 5 Nordeste 12 Norte 0 -- -- 66
2020-09-09 18:00:00 24.4 6 Norte 11 Norte 0 -- -- 67
2020-09-09 17:00:00 23.8 8 Norte 15 Norte 0 -- -- 69
2020-09-09 16:00:00 25.1 6 Norte 10 Norte 0 -- -- 62
2020-09-09 15:00:00 24.4 5 Norte 10 Noroeste 0 -- -- 64
2020-09-09 14:00:00 24.8 5 Oeste 9 Oeste 0 -- -- 61
2020-09-09 13:00:00 23.8 0 Calma 6 Sur 0 -- -- 60
2020-09-09 12:00:00 24.1 4 Oeste 7 Oeste 0 -- -- 60
2020-09-09 11:00:00 24.5 3 Nordeste 6 Norte 0 -- -- 58
2020-09-09 10:00:00 24.6 0 Calma 10 Sur 0 -- -- 60
2020-09-09 09:00:00 20.9 8 Sur 11 Sur 0 -- -- 72
2020-09-09 08:00:00 18.5 7 Sur 12 Sur 0 -- -- 80
2020-09-09 07:00:00 18.3 10 Sur 14 Sur 0 -- -- 78
2020-09-09 06:00:00 18.8 8 Sur 14 Sur 0 -- -- 76
2020-09-09 05:00:00 18.9 8 Sur 12 Sur 0 -- -- 80
2020-09-09 04:00:00 19 9 Sur 13 Sur 0 -- -- 83
2020-09-09 03:00:00 19.6 5 Sudeste 17 Nordeste 0 -- -- 78
2020-09-09 02:00:00 19.9 9 Sur 16 Sur 0 -- -- 78
2020-09-09 01:00:00 19.6 7 Sur 12 Sudoeste 0 -- -- 80
2020-09-09 00:00:00 20.2 8 Sur 14 Sur 0 -- -- 78
2020-09-08 23:00:00 20.5 7 Sudeste 12 Sudeste 0 -- -- 75
2020-09-08 22:00:00 20.5 10 Sur 19 Este 0 -- -- 80
2020-09-08 21:00:00 21 3 Sudeste 10 Sudeste 0 -- -- 76
2020-09-08 20:00:00 21.6 6 Sudeste 15 Este 0 -- -- 74
2020-09-08 19:00:00 22.1 8 Sudeste 15 Sudeste 0 -- -- 73
2020-09-08 18:00:00 22.7 6 Sudeste 17 Este 0 -- -- 71
2020-09-08 17:00:00 23.3 7 Nordeste 16 Nordeste 0 -- -- 72
2020-09-08 16:00:00 22.2 11 Nordeste 19 Norte 0 -- -- 76
2020-09-08 15:00:00 22.4 10 Norte 21 Nordeste 0 -- -- 73
2020-09-08 14:00:00 22.8 2 Nordeste 12 Norte 0 -- -- 65
2020-09-08 13:00:00 20.9 12 Nordeste 22 Nordeste 0 -- -- 68
2020-09-08 12:00:00 20 6 Este 53 Nordeste 0.2 -- -- 72
2020-09-08 11:00:00 20.4 13 Este 40 Nordeste 1.6 -- -- 78
2020-09-08 10:00:00 22.1 27 Norte 40 Norte 0 -- -- 68
2020-09-08 09:00:00 22.3 28 Nordeste 46 Nordeste 0 -- -- 64
2020-09-08 08:00:00 22.7 22 Norte 42 Norte 0 -- -- 56
2020-09-08 07:00:00 22.6 26 Norte 43 Norte 0 -- -- 52
2020-09-08 06:00:00 22.3 20 Nordeste 37 Nordeste 0 -- -- 61
2020-09-08 05:00:00 22.5 22 Nordeste 39 Nordeste 0.2 -- -- 59
2020-09-08 04:00:00 22.5 17 Nordeste 32 Este 0 -- -- 55
2020-09-08 03:00:00 21.3 11 Sudeste 25 Sudeste 0 -- -- 51
2020-09-08 02:00:00 21.1 12 Sudeste 29 Sudeste 0 -- -- 53
2020-09-08 01:00:00 21.1 12 Sudeste 32 Este 0 -- -- 52
2020-09-08 00:00:00 20.9 12 Sudeste 23 Sudeste 0 -- -- 52
2020-09-07 23:00:00 20.8 11 Sudeste 27 Sudeste 0 -- -- 53
2020-09-07 22:00:00 20.6 14 Sudeste 31 Sudeste 0 -- -- 56
2020-09-07 21:00:00 19.9 14 Sudeste 39 Sudeste 0 -- -- 63
2020-09-07 20:00:00 19.7 15 Sudeste 37 Sudeste 0 -- -- 66
2020-09-07 19:00:00 19.1 19 Sudeste 37 Sudeste 0.2 -- -- 75
2020-09-07 18:00:00 19.5 15 Sudeste 30 Este 0 -- -- 74
2020-09-07 17:00:00 19.3 12 Nordeste 24 Este 0.2 -- -- 76
2020-09-07 16:00:00 19.1 17 Nordeste 30 Este 0.2 -- -- 78
2020-09-07 15:00:00 18.9 7 Este 34 Este 1.4 -- -- 86
2020-09-07 14:00:00 18.5 12 Este 34 Nordeste 6.6 -- -- 88
2020-09-07 13:00:00 19.6 13 Nordeste 27 Este 0 -- -- 82
2020-09-07 12:00:00 19.1 13 Nordeste 26 Nordeste 1 -- -- 88
2020-09-07 11:00:00 19.2 10 Nordeste 27 Norte 6.2 -- -- 92
2020-09-07 10:00:00 19.1 6 Sur 18 Sudeste 2.2 -- -- 92
2020-09-07 09:00:00 19.2 6 Sudeste 22 Sudeste 1.6 -- -- 88
2020-09-07 08:00:00 20 10 Norte 21 Norte 2.6 -- -- 87
2020-09-07 07:00:00 18.6 7 Sudeste 32 Sudeste 22.6 -- -- 92
2020-09-07 06:00:00 19.7 5 Este 26 Sudeste 7.6 -- -- 87
2020-09-07 05:00:00 19.9 12 Sudeste 28 Este 7.6 -- -- 91
2020-09-07 04:00:00 22.8 16 Nordeste 33 Nordeste 0 -- -- 79
2020-09-07 03:00:00 24 6 Sur 28 Sudeste 0 -- -- 70
2020-09-07 02:00:00 23.8 10 Sudeste 27 Sudeste 0 -- -- 71
2020-09-07 01:00:00 24.2 12 Sudeste 21 Sudeste 0 -- -- 67
2020-09-07 00:00:00 24.3 9 Sur 22 Sudeste 0 -- -- 66
2020-09-06 23:00:00 24.2 2 Sudoeste 10 Sur 0 -- -- 69
2020-09-06 22:00:00 23.5 5 Sur 22 Sur 0 -- -- 74
2020-09-06 21:00:00 23.6 8 Sur 11 Nordeste 0 -- -- 73
2020-09-06 20:00:00 25.4 7 Nordeste 12 Norte 0 -- -- 70
2020-09-06 19:00:00 26.5 8 Nordeste 15 Norte 0 -- -- 65
2020-09-06 18:00:00 27 7 Nordeste 14 Norte 0 -- -- 62
2020-09-06 17:00:00 27.2 5 Norte 13 Norte 0 -- -- 61
2020-09-06 16:00:00 27.3 4 Norte 10 Norte 0 -- -- 62
2020-09-06 15:00:00 26.4 6 Norte 12 Norte 0 -- -- 65
2020-09-06 14:00:00 26 7 Norte 13 Norte 0 -- -- 66
2020-09-06 13:00:00 25.7 8 Norte 13 Nordeste 0 -- -- 68
2020-09-06 12:00:00 25.9 6 Norte 10 Norte 0 -- -- 66
2020-09-06 11:00:00 25.7 4 Nordeste 8 Norte 0 -- -- 64
2020-09-06 10:00:00 25.7 2 Norte 6 Sur 0 -- -- 65
2020-09-06 09:00:00 24.1 4 Sudeste 9 Este 0 -- -- 74
2020-09-06 08:00:00 21.8 7 Sur 9 Sudeste 0 -- -- 81
2020-09-06 07:00:00 21.1 6 Sur 10 Sur 0 -- -- 84
2020-09-06 06:00:00 20.8 10 Sur 13 Sur 0 -- -- 84
2020-09-06 05:00:00 20.9 11 Sur 14 Sur 0 -- -- 84
2020-09-06 04:00:00 20.9 11 Sur 14 Sur 0 -- -- 82
2020-09-06 03:00:00 20.9 11 Sur 14 Sur 0 -- -- 81
2020-09-06 02:00:00 21.1 11 Sur 14 Sur 0 -- -- 80
2020-09-06 01:00:00 21.3 11 Sur 14 Sur 0 -- -- 78
2020-09-06 00:00:00 21.5 11 Sur 13 Sur 0 -- -- 76
2020-09-05 23:00:00 22 8 Sur 14 Sur 0 -- -- 74
2020-09-05 22:00:00 22.3 11 Sur 15 Sur 0 -- -- 71
2020-09-05 21:00:00 23.1 10 Sur 14 Sur 0 -- -- 70
2020-09-05 20:00:00 25.7 4 Sur 18 Nordeste 0 -- -- 60
2020-09-05 19:00:00 26.6 10 Nordeste 22 Nordeste 0 -- -- 54
2020-09-05 18:00:00 26.7 11 Nordeste 20 Nordeste 0 -- -- 55
2020-09-05 17:00:00 26.5 13 Nordeste 24 Nordeste 0 -- -- 56
2020-09-05 16:00:00 26.6 11 Nordeste 19 Norte 0 -- -- 59
2020-09-05 15:00:00 26.6 8 Norte 16 Nordeste 0 -- -- 57
2020-09-05 14:00:00 26 8 Norte 15 Norte 0 -- -- 65
2020-09-05 13:00:00 25.2 4 Norte 6 Norte 0 -- -- 67
2020-09-05 12:00:00 24.7 3 Norte 10 Norte 0 -- -- 68
2020-09-05 11:00:00 25.4 7 Norte 11 Norte 0 -- -- 64
2020-09-05 10:00:00 25.8 3 Nordeste 8 Sudeste 0 -- -- 62
2020-09-05 09:00:00 24.4 5 Sudeste 12 Sudeste 0 -- -- 67
2020-09-05 08:00:00 21.4 6 Sudeste 12 Sur 0 -- -- 78
2020-09-05 07:00:00 21.6 9 Sur 12 Sur 0 -- -- 79
2020-09-05 06:00:00 21.7 10 Sudeste 14 Sudeste 0 -- -- 78
2020-09-05 05:00:00 20.9 5 Sur 9 Sur 0 -- -- 81
2020-09-05 04:00:00 21.1 5 Sur 9 Sudoeste 0 -- -- 81
2020-09-05 03:00:00 21.3 6 Sur 10 Sur 0 -- -- 79
2020-09-05 02:00:00 21.9 7 Sur 13 Sur 0 -- -- 75
2020-09-05 01:00:00 22.5 9 Sur 12 Sur 0 -- -- 73
2020-09-05 00:00:00 21.7 6 Sur 12 Sur 0 -- -- 78
2020-09-04 23:00:00 22.1 6 Sur 12 Sur 0 -- -- 77
2020-09-04 22:00:00 22.7 3 Sudeste 11 Sur 0 -- -- 73
2020-09-04 21:00:00 23.5 7 Sur 14 Sur 0 -- -- 73
2020-09-04 20:00:00 25.4 6 Nordeste 15 Nordeste 0 -- -- 65
2020-09-04 19:00:00 26.2 9 Nordeste 14 Nordeste 0 -- -- 61
2020-09-04 18:00:00 26.4 9 Norte 17 Norte 0 -- -- 62
2020-09-04 17:00:00 26.8 9 Norte 15 Norte 0 -- -- 59
2020-09-04 16:00:00 26.5 6 Norte 13 Norte 0 -- -- 62
2020-09-04 15:00:00 25.5 6 Norte 11 Norte 0 -- -- 66
2020-09-04 14:00:00 25.9 7 Norte 10 Norte 0 -- -- 66
2020-09-04 13:00:00 26.1 5 Norte 9 Norte 0 -- -- 62
2020-09-04 12:00:00 26 5 Norte 8 Norte 0 -- -- 60
2020-09-04 11:00:00 25.8 3 Norte 5 Norte 0 -- -- 58
2020-09-04 10:00:00 26 0 Calma 6 Sur 0 -- -- 59
2020-09-04 09:00:00 22.8 6 Sur 13 Sur 0 -- -- 69
2020-09-04 08:00:00 20.4 10 Sur 14 Sur 0 -- -- 76
2020-09-04 07:00:00 20.5 9 Sur 15 Sur 0 -- -- 74
2020-09-04 06:00:00 21.4 6 Sur 13 Sur 0 -- -- 74
2020-09-04 05:00:00 21.3 8 Sur 10 Sur 0 -- -- 78
2020-09-04 04:00:00 20.8 6 Sur 10 Sur 0 -- -- 81
2020-09-04 03:00:00 20.8 9 Sur 14 Sur 0 -- -- 79
2020-09-04 02:00:00 20.8 12 Sur 16 Sur 0 -- -- 78
2020-09-04 01:00:00 21.2 12 Sur 15 Sur 0 -- -- 78
2020-09-04 00:00:00 21.3 11 Sur 13 Sur 0 -- -- 77
2020-09-03 23:00:00 21.8 7 Sur 10 Sur 0 -- -- 76
2020-09-03 22:00:00 22 8 Sur 11 Sudoeste 0 -- -- 75
2020-09-03 21:00:00 22.6 8 Sur 11 Sur 0 -- -- 73
2020-09-03 20:00:00 26.4 3 Norte 8 Norte 0 -- -- 58
2020-09-03 19:00:00 27.2 4 Norte 9 Norte 0 -- -- 56
2020-09-03 18:00:00 26.9 7 Noroeste 14 Noroeste 0 -- -- 56
2020-09-03 17:00:00 27 7 Noroeste 16 Noroeste 0 -- -- 57
2020-09-03 16:00:00 26.6 7 Noroeste 14 Noroeste 0 -- -- 58
2020-09-03 15:00:00 26.4 8 Oeste 17 Noroeste 0 -- -- 58
2020-09-03 14:00:00 26.7 6 Noroeste 11 Noroeste 0 -- -- 55
2020-09-03 13:00:00 26.6 5 Norte 8 Norte 0 -- -- 55
2020-09-03 12:00:00 26 4 Norte 6 Norte 0 -- -- 54
2020-09-03 11:00:00 25.8 2 Norte 5 Noroeste 0 -- -- 51
2020-09-03 10:00:00 26.3 0 Calma 9 Sur 0 -- -- 48
2020-09-03 09:00:00 22 6 Sur 12 Sur 0 -- -- 68
2020-09-03 08:00:00 19.8 10 Sur 13 Sur 0 -- -- 71
2020-09-03 07:00:00 19.8 9 Sur 13 Sur 0 -- -- 69
2020-09-03 06:00:00 19.7 9 Sur 12 Sur 0 -- -- 70
2020-09-03 05:00:00 20.5 7 Sur 14 Sur 0 -- -- 67
2020-09-03 04:00:00 21.5 10 Sur 18 Sur 0 -- -- 63
2020-09-03 03:00:00 21.6 9 Sur 18 Sur 0 -- -- 61
2020-09-03 02:00:00 21.5 10 Sur 21 Sur 0 -- -- 61
2020-09-03 01:00:00 22.1 11 Sur 21 Sur 0 -- -- 59
2020-09-03 00:00:00 22.7 10 Sur 23 Sur 0 -- -- 56
2020-09-02 23:00:00 23 10 Sudeste 26 Sur 0 -- -- 55
2020-09-02 22:00:00 23.5 10 Sur 19 Sur 0 -- -- 56
2020-09-02 21:00:00 23.5 5 Noroeste 14 Oeste 0 -- -- 56
2020-09-02 20:00:00 24.7 5 Sur 10 Sur 0 -- -- 61
2020-09-02 19:00:00 26.3 4 Noroeste 12 Noroeste 0 -- -- 52
2020-09-02 18:00:00 26.2 6 Norte 9 Norte 0 -- -- 52
2020-09-02 17:00:00 26.3 5 Norte 12 Norte 0 -- -- 50
2020-09-02 16:00:00 25.9 7 Norte 17 Norte 0 -- -- 52
2020-09-02 15:00:00 25.5 8 Nordeste 20 Norte 0 -- -- 53
2020-09-02 14:00:00 24.9 6 Norte 10 Norte 0 -- -- 54
2020-09-02 13:00:00 24.9 6 Norte 12 Nordeste 0 -- -- 52
2020-09-02 12:00:00 24.1 8 Norte 14 Norte 0 -- -- 55
2020-09-02 11:00:00 24.2 9 Este 25 Este 0 -- -- 54
2020-09-02 10:00:00 23 4 Sur 13 Sudeste 0 -- -- 56
2020-09-02 09:00:00 19.1 6 Sur 18 Sudeste 0 -- -- 77
2020-09-02 08:00:00 18.4 6 Sur 17 Sur 0 -- -- 78
2020-09-02 07:00:00 18 10 Sur 27 Sudeste 0 -- -- 83
2020-09-02 06:00:00 18.1 16 Sudeste 35 Norte 1.8 -- -- 81
2020-09-02 05:00:00 19.2 26 Norte 53 Norte 5.8 -- -- 90
2020-09-02 04:00:00 21.3 6 Sur 14 Sur 0 -- -- 71
2020-09-02 03:00:00 21.1 9 Sur 12 Sur 0 -- -- 72
2020-09-02 02:00:00 22.2 6 Sur 15 Sur 0 -- -- 68
2020-09-02 01:00:00 21.6 9 Sur 13 Sur 0 -- -- 68
2020-09-02 00:00:00 22.3 7 Sur 9 Sur 0 -- -- 71
2020-09-01 23:00:00 22.3 5 Sur 10 Sudeste 0 -- -- 70
2020-09-01 22:00:00 22.6 5 Sur 9 Sur 0 -- -- 66
2020-09-01 21:00:00 23.2 5 Sur 9 Norte 0 -- -- 62
2020-09-01 20:00:00 24 5 Norte 9 Norte 0 -- -- 59
2020-09-01 19:00:00 25 7 Norte 11 Norte 0 -- -- 53
2020-09-01 18:00:00 25.4 5 Norte 15 Norte 0 -- -- 53
2020-09-01 17:00:00 25.2 9 Norte 15 Norte 0 -- -- 56
2020-09-01 16:00:00 25.9 8 Noroeste 14 Norte 0 -- -- 55
2020-09-01 15:00:00 26.1 5 Noroeste 10 Noroeste 0 -- -- 50
2020-09-01 14:00:00 25.8 6 Norte 10 Noroeste 0 -- -- 48
2020-09-01 13:00:00 25.8 6 Norte 12 Noroeste 0 -- -- 52
2020-09-01 12:00:00 26.3 7 Noroeste 13 Noroeste 0 -- -- 50
2020-09-01 11:00:00 25.7 4 Noroeste 8 Noroeste 0 -- -- 51
2020-09-01 10:00:00 25.4 3 Norte 9 Sur 0 -- -- 53
2020-09-01 09:00:00 21.9 7 Sur 12 Sur 0 -- -- 65
2020-09-01 08:00:00 20.2 9 Sur 18 Sur 0 -- -- 65
2020-09-01 07:00:00 20.2 12 Sur 18 Sur 0 -- -- 65
2020-09-01 06:00:00 20.2 12 Sur 18 Sur 0 -- -- 65
2020-09-01 05:00:00 20.7 13 Sur 20 Sur 0 -- -- 62
2020-09-01 04:00:00 20.7 10 Sur 18 Sur 0 -- -- 61
2020-09-01 03:00:00 20.7 14 Sur 18 Sur 0 -- -- 59
2020-09-01 02:00:00 20.8 12 Sur 17 Sur 0 -- -- 58
2020-09-01 01:00:00 21.2 12 Sur 19 Sur 0 -- -- 57
2020-09-01 00:00:00 21.3 12 Sur 19 Sur 0 -- -- 54
2020-08-31 23:00:00 21.5 12 Sur 21 Sur 0 -- -- 45
2020-08-31 22:00:00 21.5 13 Sur 18 Sudoeste 0 -- -- 46
2020-08-31 21:00:00 21.1 10 Sur 16 Sur 0 -- -- 53
2020-08-31 20:00:00 23.5 5 Sudoeste 22 Oeste 0 -- -- 51
2020-08-31 19:00:00 25.3 10 Oeste 24 Oeste 0 -- -- 48
2020-08-31 18:00:00 25.4 12 Oeste 23 Norte 0 -- -- 47
2020-08-31 17:00:00 25.6 9 Noroeste 21 Noroeste 0 -- -- 51
2020-08-31 16:00:00 25.3 11 Noroeste 20 Oeste 0 -- -- 50
2020-08-31 15:00:00 25.3 7 Norte 19 Norte 0 -- -- 52
2020-08-31 14:00:00 23.9 15 Noroeste 28 Noroeste 0 -- -- 61
2020-08-31 13:00:00 24.2 9 Noroeste 17 Oeste 0 -- -- 51
2020-08-31 12:00:00 24.4 10 Oeste 17 Oeste 0 -- -- 50
2020-08-31 11:00:00 24.3 6 Oeste 10 Oeste 0 -- -- 49
2020-08-31 10:00:00 23.6 4 Norte 8 Sudeste 0 -- -- 49
2020-08-31 09:00:00 22.6 4 Sudeste 14 Sudeste 0 -- -- 54
2020-08-31 08:00:00 19.7 7 Sudeste 16 Sudeste 0 -- -- 62
2020-08-31 07:00:00 19.7 8 Sudeste 20 Sudeste 0 -- -- 64
2020-08-31 06:00:00 19.2 6 Este 20 Sudeste 0 -- -- 72
2020-08-31 05:00:00 19 8 Sudeste 20 Sudeste 0 -- -- 80
2020-08-31 04:00:00 19.1 13 Sudeste 28 Sudeste 0 -- -- 73
2020-08-31 03:00:00 18.4 14 Nordeste 71 Norte 0.2 -- -- 68
2020-08-31 02:00:00 19.4 11 Sur 15 Sur 0 -- -- 77
2020-08-31 01:00:00 19.3 6 Sur 13 Sur 0 -- -- 77
2020-08-31 00:00:00 19.8 7 Sur 11 Sur 0 -- -- 74
2020-08-30 23:00:00 20 8 Sur 10 Sur 0 -- -- 71
2020-08-30 22:00:00 20.4 8 Sur 11 Sur 0 -- -- 69
2020-08-30 21:00:00 20.4 7 Sur 9 Sur 0 -- -- 68
2020-08-30 20:00:00 23 3 Nordeste 12 Norte 0 -- -- 57
2020-08-30 19:00:00 -- -- -- -- -- -- -- -- --
2020-08-30 18:00:00 -- -- -- -- -- -- -- -- --
2020-08-30 17:00:00 -- -- -- -- -- -- -- -- --
2020-08-30 16:00:00 -- -- -- -- -- -- -- -- --
2020-08-30 15:00:00 -- -- -- -- -- -- -- -- --
2020-08-30 14:00:00 -- -- -- -- -- -- -- -- --
2020-08-30 13:00:00 -- -- -- -- -- -- -- -- --
2020-08-30 12:00:00 -- -- -- -- -- -- -- -- --
2020-08-30 11:00:00 -- -- -- -- -- -- -- -- --
2020-08-30 10:00:00 -- -- -- -- -- -- -- -- --
2020-08-30 09:00:00 -- -- -- -- -- -- -- -- --
2020-08-30 08:00:00 -- -- -- -- -- -- -- -- --
2020-08-30 07:00:00 -- -- -- -- -- -- -- -- --
2020-08-30 06:00:00 -- -- -- -- -- -- -- -- --
2020-08-30 05:00:00 -- -- -- -- -- -- -- -- --
2020-08-30 04:00:00 -- -- -- -- -- -- -- -- --
2020-08-30 03:00:00 -- -- -- -- -- -- -- -- --
2020-08-30 02:00:00 -- -- -- -- -- -- -- -- --
2020-08-30 01:00:00 -- -- -- -- -- -- -- -- --
2020-08-30 00:00:00 -- -- -- -- -- -- -- -- --
2020-08-29 23:00:00 -- -- -- -- -- -- -- -- --
2020-08-29 22:00:00 -- -- -- -- -- -- -- -- --
2020-08-29 21:00:00 -- -- -- -- -- -- -- -- --
2020-08-29 20:00:00 -- -- -- -- -- -- -- -- --
2020-08-29 19:00:00 -- -- -- -- -- -- -- -- --
2020-08-29 18:00:00 -- -- -- -- -- -- -- -- --
2020-08-29 17:00:00 -- -- -- -- -- -- -- -- --
2020-08-29 16:00:00 -- -- -- -- -- -- -- -- --
2020-08-29 15:00:00 -- -- -- -- -- -- -- -- --
2020-08-29 14:00:00 -- -- -- -- -- -- -- -- --
2020-08-29 13:00:00 -- -- -- -- -- -- -- -- --
2020-08-29 12:00:00 -- -- -- -- -- -- -- -- --
2020-08-29 11:00:00 -- -- -- -- -- -- -- -- --
2020-08-29 10:00:00 26.4 13 Nordeste 27 Este 0 -- -- 73
2020-08-29 09:00:00 26.2 9 Este 21 Sudeste 0 -- -- 69
2020-08-29 08:00:00 24.4 8 Sudeste 30 Este 0 -- -- 77
2020-08-29 07:00:00 24.8 9 Este 46 Sudeste 0 -- -- 74
2020-08-29 06:00:00 23.3 8 Sudeste 35 Nordeste 0 -- -- 84
2020-08-29 05:00:00 24.2 24 Nordeste 39 Nordeste 0.4 -- -- 86
2020-08-29 04:00:00 25.3 11 Sudeste 25 Nordeste 0.6 -- -- 78
2020-08-29 03:00:00 25.4 6 Sudeste 13 Sudeste 0 -- -- 73
2020-08-29 02:00:00 25.2 5 Sur 12 Sudeste 0 -- -- 72
2020-08-29 01:00:00 25.3 6 Sur 16 Sudoeste 0 -- -- 70
2020-08-29 00:00:00 25.1 8 Sur 12 Sudoeste 0 -- -- 72
2020-08-28 23:00:00 26.7 9 Este 18 Nordeste 0 -- -- 73
2020-08-28 22:00:00 26.8 4 Nordeste 22 Nordeste 0 -- -- 73
2020-08-28 21:00:00 26.8 17 Nordeste 26 Nordeste 0 -- -- 77
2020-08-28 20:00:00 27.4 8 Nordeste 29 Nordeste 0 -- -- 71
2020-08-28 19:00:00 28.7 17 Nordeste 27 Nordeste 0 -- -- 67
2020-08-28 18:00:00 30 8 Norte 19 Norte 0 -- -- 62
2020-08-28 17:00:00 29.7 11 Norte 20 Norte 0 -- -- 63
2020-08-28 16:00:00 31.3 11 Norte 17 Norte 0 -- -- 52
2020-08-28 15:00:00 32 11 Norte 21 Norte 0 -- -- 42
2020-08-28 14:00:00 32.2 6 Norte 17 Este 0 -- -- 39
2020-08-28 13:00:00 30.9 5 Norte 9 Norte 0 -- -- 44
2020-08-28 12:00:00 30.3 3 Norte 12 Noroeste 0 -- -- 48
2020-08-28 11:00:00 29.2 2 Norte 4 Sur 0 -- -- 43
2020-08-28 10:00:00 30 0 Calma 6 Sur 0 -- -- 42
2020-08-28 09:00:00 27.4 4 Sudeste 12 Sur 0 -- -- 39
2020-08-28 08:00:00 23.8 10 Sur 15 Sur 0 -- -- 43
2020-08-28 07:00:00 24.1 9 Sur 13 Sur 0 -- -- 37
2020-08-28 06:00:00 24.2 7 Sur 14 Sur 0 -- -- 40
2020-08-28 05:00:00 24 9 Sur 13 Sur 0 -- -- 39
2020-08-28 04:00:00 23.9 12 Sur 15 Sur 0 -- -- 41
2020-08-28 03:00:00 23.8 10 Sur 14 Sur 0 -- -- 45
2020-08-28 02:00:00 24.1 10 Sur 14 Sudoeste 0 -- -- 43
2020-08-28 01:00:00 24.6 7 Sudeste 14 Sur 0 -- -- 58
2020-08-28 00:00:00 24.1 10 Sur 15 Sur 0 -- -- 54
2020-08-27 23:00:00 24.4 12 Sur 14 Sur 0 -- -- 61
2020-08-27 22:00:00 25.1 8 Sur 12 Sur 0 -- -- 64
2020-08-27 21:00:00 26.3 9 Sur 11 Sur 0 -- -- 76
2020-08-27 20:00:00 28.1 3 Nordeste 13 Norte 0 -- -- 73
2020-08-27 19:00:00 29.4 9 Norte 14 Norte 0 -- -- 67
2020-08-27 18:00:00 29.3 7 Norte 13 Norte 0 -- -- 66
2020-08-27 17:00:00 28.7 6 Norte 11 Norte 0 -- -- 70
2020-08-27 16:00:00 28.8 6 Norte 10 Norte 0 -- -- 67
2020-08-27 15:00:00 29.9 5 Norte 10 Norte 0 -- -- 62
2020-08-27 14:00:00 29.1 6 Norte 10 Norte 0 -- -- 64
2020-08-27 13:00:00 28.6 5 Norte 10 Norte 0 -- -- 70
2020-08-27 12:00:00 28.1 4 Norte 10 Norte 0 -- -- 73
2020-08-27 11:00:00 27.4 7 Norte 10 Norte 0 -- -- 76
2020-08-27 10:00:00 28 3 Norte 6 Nordeste 0 -- -- 70
2020-08-27 09:00:00 26.5 6 Sur 11 Sur 0 -- -- 59
2020-08-27 08:00:00 23.8 9 Sur 13 Sur 0 -- -- 54
2020-08-27 07:00:00 23.6 9 Sur 14 Sur 0 -- -- 55
2020-08-27 06:00:00 23.6 9 Sur 13 Sur 0 -- -- 56
2020-08-27 05:00:00 23.7 8 Sur 12 Sur 0 -- -- 64
2020-08-27 04:00:00 24.7 6 Sur 11 Sur 0 -- -- 71
2020-08-27 03:00:00 24.7 9 Sur 12 Sur 0 -- -- 64
2020-08-27 02:00:00 25 7 Sur 11 Sudeste 0 -- -- 67
2020-08-27 01:00:00 24.7 6 Sur 12 Sur 0 -- -- 67
2020-08-27 00:00:00 24.6 9 Sur 12 Sur 0 -- -- 60
2020-08-26 23:00:00 24.9 10 Sur 14 Sur 0 -- -- 64
2020-08-26 22:00:00 25.3 6 Sur 12 Sur 0 -- -- 66
2020-08-26 21:00:00 26.9 3 Sudeste 11 Nordeste 0 -- -- 76
2020-08-26 20:00:00 28.6 4 Norte 6 Norte 0 -- -- 70
2020-08-26 19:00:00 29.6 4 Norte 9 Noroeste 0 -- -- 66
2020-08-26 18:00:00 30.4 5 Noroeste 11 Noroeste 0 -- -- 64
2020-08-26 17:00:00 30.2 6 Norte 11 Noroeste 0 -- -- 61
2020-08-26 16:00:00 29.3 5 Norte 10 Norte 0 -- -- 65
2020-08-26 15:00:00 28.9 7 Norte 11 Norte 0 -- -- 68
2020-08-26 14:00:00 28.4 6 Norte 11 Norte 0 -- -- 69
2020-08-26 13:00:00 28.1 6 Norte 9 Norte 0 -- -- 72
2020-08-26 12:00:00 28.7 4 Norte 7 Noroeste 0 -- -- 65
2020-08-26 11:00:00 28.4 5 Norte 8 Oeste 0 -- -- 62
2020-08-26 10:00:00 29.2 2 Norte 10 Oeste 0 -- -- 52
2020-08-26 09:00:00 28.4 0 Calma 12 Sur 0 -- -- 52
2020-08-26 08:00:00 24.1 9 Sur 14 Sur 0 -- -- 57
2020-08-26 07:00:00 23.8 12 Sur 14 Sur 0 -- -- 56
2020-08-26 06:00:00 23.4 12 Sur 14 Sur 0 -- -- 61
2020-08-26 05:00:00 23.6 7 Sur 10 Sur 0 -- -- 71
2020-08-26 04:00:00 24.8 7 Sur 10 Sur 0 -- -- 71
2020-08-26 03:00:00 23.9 11 Sur 14 Sur 0 -- -- 72
2020-08-26 02:00:00 24 8 Sur 10 Sur 0 -- -- 74
2020-08-26 01:00:00 24.3 9 Sur 12 Sur 0 -- -- 77
2020-08-26 00:00:00 24.6 9 Sur 13 Sur 0 -- -- 73
2020-08-25 23:00:00 24.8 9 Sur 12 Sur 0 -- -- 69
2020-08-25 22:00:00 25.6 6 Sur 12 Sur 0 -- -- 72
2020-08-25 21:00:00 26.5 6 Sur 9 Sur 0 -- -- 71
2020-08-25 20:00:00 29.1 4 Oeste 12 Norte 0 -- -- 68
2020-08-25 19:00:00 29.2 8 Norte 15 Norte 0 -- -- 67
2020-08-25 18:00:00 29.1 10 Norte 19 Norte 0 -- -- 67
2020-08-25 17:00:00 29.6 10 Norte 18 Norte 0 -- -- 64
2020-08-25 16:00:00 29.6 10 Norte 17 Norte 0 -- -- 64
2020-08-25 15:00:00 29.8 10 Norte 18 Nordeste 0 -- -- 62
2020-08-25 14:00:00 29.9 9 Norte 14 Norte 0 -- -- 62
2020-08-25 13:00:00 28.9 5 Norte 8 Norte 0 -- -- 61
2020-08-25 12:00:00 28.1 3 Norte 6 Noroeste 0 -- -- 65
2020-08-25 11:00:00 27.4 3 Norte 6 Norte 0 -- -- 68
2020-08-25 10:00:00 27.2 2 Norte 5 Este 0 -- -- 67
2020-08-25 09:00:00 27.2 0 Calma 10 Sur 0 -- -- 67
2020-08-25 08:00:00 23.2 8 Sur 11 Sur 0 -- -- 80
2020-08-25 07:00:00 22.9 8 Sur 10 Sur 0 -- -- 82
2020-08-25 06:00:00 23 8 Sur 11 Sur 0 -- -- 82
2020-08-25 05:00:00 23.1 9 Sur 11 Sur 0 -- -- 80
2020-08-25 04:00:00 23.4 9 Sur 12 Sur 0 -- -- 80
2020-08-25 03:00:00 23.3 7 Sur 12 Sur 0 -- -- 78
2020-08-25 02:00:00 23.4 6 Sur 11 Sur 0 -- -- 78
2020-08-25 01:00:00 23.6 6 Sur 9 Sur 0 -- -- 78
2020-08-25 00:00:00 24 6 Sur 10 Sur 0 -- -- 76
2020-08-24 23:00:00 24.3 6 Sur 10 Sur 0 -- -- 76
2020-08-24 22:00:00 24.7 8 Sur 11 Sudoeste 0 -- -- 74
2020-08-24 21:00:00 25.6 5 Sudoeste 8 Sudoeste 0 -- -- 73
2020-08-24 20:00:00 27 4 Nordeste 11 Norte 0 -- -- 68
2020-08-24 19:00:00 27.9 6 Norte 15 Norte 0 -- -- 65
2020-08-24 18:00:00 29 6 Norte 14 Norte 0 -- -- 62
2020-08-24 17:00:00 28.3 8 Norte 13 Norte 0 -- -- 65
2020-08-24 16:00:00 28 8 Norte 15 Norte 0 -- -- 66
2020-08-24 15:00:00 27.4 9 Norte 13 Norte 0 -- -- 68
2020-08-24 14:00:00 26.5 8 Norte 13 Norte 0 -- -- 72
2020-08-24 13:00:00 26.7 4 Norte 13 Noroeste 0 -- -- 69
2020-08-24 12:00:00 27.1 5 Noroeste 14 Noroeste 0 -- -- 67
2020-08-24 11:00:00 27 5 Norte 10 Oeste 0 -- -- 64
2020-08-24 10:00:00 27 8 Oeste 13 Oeste 0 -- -- 66
2020-08-24 09:00:00 26.6 7 Sudeste 14 Sudeste 0 -- -- 65
2020-08-24 08:00:00 23.9 5 Sudeste 11 Sur 0 -- -- 76
2020-08-24 07:00:00 23.3 5 Sur 12 Sudeste 0 -- -- 77
2020-08-24 06:00:00 23.8 6 Sur 10 Sudeste 0 -- -- 76
2020-08-24 05:00:00 23.8 6 Sudeste 12 Sudeste 0 -- -- 76
2020-08-24 04:00:00 24 6 Sur 10 Sur 0 -- -- 76
2020-08-24 03:00:00 24 5 Sur 9 Sur 0 -- -- 75
2020-08-24 02:00:00 24.2 5 Sur 9 Sur 0 -- -- 74
2020-08-24 01:00:00 24.2 5 Sur 11 Sur 0 -- -- 74
2020-08-24 00:00:00 24.3 6 Sur 10 Sur 0 -- -- 74